Location: Unspecified
(35.7250°N, 0.0000°E)
Time: 21:13:13
(UTC+00:00)

Vanguard 1 - Pass Details

Date: 29 June 2019
Orbit: 653 x 3830 km, 34.3° (Epoch: 17 July)

Event Time Altitude Azimuth Distance (km) Brightness Sun altitude
Rises 05:53:36 0° 284° (WNW) 6,839 13.9 11.4°
Reaches altitude 10° 05:58:56 10° 281° (W) 5,331 13.3 12.5°
Maximum altitude 06:12:17 55° 209° (SSW) 1,888 11.5 15.0°
Drops below altitude 10° 06:19:30 10° 133° (SE) 2,980 13.0 16.4°
Sets 06:21:41 0° 128° (SE) 3,692 13.5 16.8°
